Lake of the Ozarks Weather Center

Moon Phase Calendar



Lake of the Ozarks Water Level
Online Cameras

 


      

Current Conditions in Four Seasons
6/29/2022 11:24:19 AM

84°F
Feels Like 83
Clear
Humidity
38%
Pressure
30.27"
Wind
3.9 mph (SW)
Dew Point
56°F
UV Index
7/10 (High)
Visibility
6 mi

Hourly Forecast

Date & Time Wed, Jun 29
11:00 AM
Wed, Jun 29
12:00 PM
Wed, Jun 29
1:00 PM
Wed, Jun 29
2:00 PM
Wed, Jun 29
3:00 PM
Wed, Jun 29
4:00 PM
Wed, Jun 29
5:00 PM
Wed, Jun 29
6:00 PM
Wed, Jun 29
7:00 PM
Wed, Jun 29
8:00 PM
Wed, Jun 29
9:00 PM
Wed, Jun 29
10:00 PM
Wed, Jun 29
11:00 PM
Thu, Jun 30
12:00 AM
Thu, Jun 30
1:00 AM
Thu, Jun 30
2:00 AM
Thu, Jun 30
3:00 AM
Thu, Jun 30
4:00 AM
Thu, Jun 30
5:00 AM
Thu, Jun 30
6:00 AM
Thu, Jun 30
7:00 AM
Thu, Jun 30
8:00 AM
Thu, Jun 30
9:00 AM
Thu, Jun 30
10:00 AM
Thu, Jun 30
11:00 AM
Thu, Jun 30
12:00 PM
Thu, Jun 30
1:00 PM
Thu, Jun 30
2:00 PM
Thu, Jun 30
3:00 PM
Thu, Jun 30
4:00 PM
Thu, Jun 30
5:00 PM
Thu, Jun 30
6:00 PM
Thu, Jun 30
7:00 PM
Thu, Jun 30
8:00 PM
Thu, Jun 30
9:00 PM
Thu, Jun 30
10:00 PM
Thu, Jun 30
11:00 PM
Fri, Jul 1
12:00 AM
Fri, Jul 1
1:00 AM
Fri, Jul 1
2:00 AM
Fri, Jul 1
3:00 AM
Fri, Jul 1
4:00 AM
Fri, Jul 1
5:00 AM
Fri, Jul 1
6:00 AM
Fri, Jul 1
7:00 AM
Fri, Jul 1
8:00 AM
Fri, Jul 1
9:00 AM
Fri, Jul 1
10:00 AM
Condition
Clear

Clear

Clear

Clear

Clear

Clear

Clear

Clear

Clear

Clear

Clear

Clear

Clear

Clear

Clear

Clear

Clear

Clear

Clear

Clear

Clear

Clear

Clear

Clear

Clear

Clear

Clear

Clear

Clear

Clear

Clear

Clear

Clear

Clear

Clear

Clear

Clear

Clear

Clear

Clear

Clear

Clear

Clouds

Clouds

Clouds

Clouds

Clouds

Clouds
Temperature 84°F84°F86°F88°F90°F91°F90°F88°F84°F77°F73°F71°F70°F68°F66°F65°F64°F62°F61°F60°F61°F67°F74°F79°F84°F87°F90°F91°F92°F92°F91°F90°F86°F79°F75°F74°F73°F72°F70°F69°F69°F69°F68°F68°F71°F76°F82°F86°F
Feels Like 83°F83°F85°F86°F88°F89°F88°F87°F85°F77°F73°F71°F70°F67°F66°F64°F63°F61°F60°F59°F60°F66°F73°F79°F82°F85°F86°F88°F89°F89°F89°F89°F87°F79°F76°F74°F73°F71°F70°F69°F69°F69°F69°F68°F71°F77°F85°F89°F
Cloudiness 0%0%0%0%0%0%0%0%0%0%0%0%0%0%0%0%0%0%0%0%0%0%0%0%0%0%0%0%0%0%0%0%0%0%0%0%2%4%3%0%0%3%13%25%37%40%20%18%
Visibility 6 mi6 mi6 mi6 mi6 mi6 mi6 mi6 mi6 mi6 mi6 mi6 mi6 mi6 mi6 mi6 mi6 mi6 mi6 mi6 mi6 mi6 mi6 mi6 mi6 mi6 mi6 mi6 mi6 mi6 mi6 mi6 mi6 mi6 mi6 mi6 mi6 mi6 mi6 mi6 mi6 mi6 mi6 mi6 mi6 mi6 mi6 mi6 mi
Precipitation 0%0%0%0%0%0%0%0%0%0%0%0%0%0%0%0%0%0%0%0%0%0%0%0%0%0%0%0%0%0%0%0%0%0%0%0%0%0%0%0%0%0%0%0%0%0%0%0%
Humidity 38%37%36%33%32%32%33%38%52%67%69%70%70%72%72%69%65%62%60%60%65%55%45%38%32%26%23%22%24%26%30%36%50%63%65%66%64%64%68%72%74%77%80%82%81%72%62%54%
Dew Point 56°F55°F56°F55°F56°F56°F57°F59°F64°F64°F62°F60°F59°F58°F56°F54°F51°F49°F47°F46°F49°F50°F51°F51°F50°F48°F47°F47°F49°F52°F55°F59°F65°F65°F63°F61°F60°F59°F59°F60°F60°F61°F61°F62°F64°F66°F67°F67°F
Pressure 30.27"30.24"30.24"30.21"30.15"30.12"30.09"30.09"30.09"30.09"30.12"30.12"30.12"30.15"30.15"30.15"30.12"30.12"30.12"30.12"30.12"30.12"30.12"30.09"30.09"30.06"30.03"30"29.97"29.97"29.97"29.97"29.94"29.94"29.97"29.97"29.97"30"29.97"29.97"29.97"29.97"29.97"30"30"30.03"30.03"30"
Wind Speed 3.9 mph3.6 mph3.3 mph3.7 mph4.6 mph5.8 mph6.6 mph6.8 mph5.5 mph4.4 mph3.6 mph3.7 mph5.2 mph4.7 mph4.3 mph4.5 mph4.9 mph4.6 mph4.2 mph4.4 mph4.2 mph5.2 mph6.2 mph6.8 mph7.4 mph7.7 mph8.2 mph8.1 mph8.2 mph8.2 mph7.8 mph6.8 mph4.1 mph3.5 mph4.6 mph4.6 mph4.5 mph4.6 mph4.7 mph4.4 mph4.6 mph3.4 mph2.4 mph2.6 mph3.7 mph5.6 mph6.3 mph6 mph
Wind
Direction
219°
SW
208°
SSW
192°
SSW
182°
S
175°
S
175°
S
174°
S
170°
S
167°
SSE
188°
S
200°
SSW
178°
S
172°
S
182°
S
192°
SSW
181°
S
170°
S
173°
S
177°
S
173°
S
177°
S
184°
S
182°
S
194°
SSW
201°
SSW
211°
SSW
218°
SW
221°
SW
227°
SW
232°
SW
226°
SW
217°
SW
200°
SSW
170°
S
155°
SSE
161°
SSE
167°
SSE
155°
SSE
164°
SSE
189°
S
191°
S
193°
SSW
211°
SSW
208°
SSW
204°
SSW
225°
SW
229°
SW
248°
WSW

Daily Forecast

Date High Low Precip. Humidity
Today
Jun 29

Clear
91 °F
61 °F
0%
36%
Thursday
Jun 30

Clear
92 °F
60 °F
0%
23%
Friday
Jul 1

Clouds
94 °F
69 °F
3%
39%
Saturday
Jul 2

Rain
94 °F
72 °F
40%
44%
Sunday
Jul 3

Rain
95 °F
71 °F
85%
41%
Monday
Jul 4

Rain
95 °F
74 °F
58%
41%
Tuesday
Jul 5

Clear
101 °F
74 °F
40%
37%
Wednesday
Jul 6

Rain
98 °F
73 °F
95%
43%
Thursday
Jul 7

Rain
95 °F
71 °F
98%
61%
Friday
Jul 8

Rain
81 °F
73 °F
100%
82%
Saturday
Jul 9

Rain
94 °F
73 °F
80%
47%
Sunday
Jul 10

Rain
99 °F
74 °F
49%
44%
Monday
Jul 11

Clear
100 °F
75 °F
0%
41%
Tuesday
Jul 12

Clear
97 °F
74 °F
0%
42%
Wednesday
Jul 13

Rain
82 °F
73 °F
100%
96%
Thursday
Jul 14

Rain
85 °F
72 °F
100%
79%

Temperature 8-14 Day Outlook



Precipitation 8-14 Day Outlook






About Us
Contact Us
Site Map
Search Site
Advertise With Us
   
Ozarks.USLakes.info
THE LAKE OF THE OZARKS WEBSITE

Copyright 2022, Lakes Online
Privacy    |    Legal